Bettles Field, AK

5:38 PM AKDT on July 24, 2016 (GMT -0800)
Bettles

Weather History for PABT - May, 2014

Change the Weather History Date:

Tuesday, May 6, 2014

  Actual Average Record
Temperature  
Mean Temperature 35 °F -  
Max Temperature 42 °F 48 °F 65 °F (1991)
Min Temperature 28 °F 28 °F 1 °F (1992)
Degree Days  
Heating Degree Days 30    
Moisture  
Dew Point 25 °F    
Average Humidity 65    
Maximum Humidity 89    
Minimum Humidity 35    
Precipitation  
Precipitation 0.03 in - - ()
Sea Level Pressure  
Sea Level Pressure 29.76 in    
Wind  
Wind Speed 5 mph (NNE)    
Max Wind Speed 9 mph    
Max Gust Speed -    
Visibility 9 miles    
Events Rain    
Averages and records for this station are not official NWS values.
T = Trace of Precipitation, MM = Missing Value Source: NWS Daily Summary

Daily Weather History Graph

Daily Weather History Graph

Search for Another Location

Airport or City:

Trip Planner

Search our weather history database for the weather conditions in past years. The results will help you decide how hot, cold, wet, or windy it might be!

Date:

Astronomy

May. 06, 2014 Rise Set
Actual Time 4:52 AM AKDT 11:16 PM AKDT
Civil Twilight 2:52 AM AKDT 1:28 AM AKDT
Nautical Twilight Sun does not set Sun does not set
Astronomical Twilight Sun does not set Sun does not set
Moon 12:04 PM AKDT (5/6) 3:58 AM AKDT (5/6)
Length of Visible Light 22h 35m
Length of Day
18h 23m
Waxing Crescent, 47% of the Moon is Illuminated
May 6
Waxing Crescent
May 6
First Quarter
May 14
Full
May 21
Last Quarter
May 28
New

Hourly Weather History & Observations

Time (AKDT) Temp. Windchill Dew Point Humidity Pressure Visibility Wind Dir Wind Speed Gust Speed Precip Events Conditions
3:53 AM 28.0 °F 21.7 °F 15.1 °F 58% 29.88 in 10.0 mi North 5.8 mph - N/A   Partly Cloudy
4:53 AM 28.9 °F 22.8 °F 14.0 °F 54% 29.88 in 10.0 mi NNE 5.8 mph - N/A   Partly Cloudy
5:53 AM 28.9 °F 22.8 °F 14.0 °F 54% 29.86 in 10.0 mi North 5.8 mph - N/A   Scattered Clouds
6:53 AM 30.0 °F 24.1 °F 15.1 °F 54% 29.86 in 10.0 mi North 5.8 mph - N/A   Scattered Clouds
7:53 AM 30.9 °F 26.2 °F 15.1 °F 52% 29.85 in 10.0 mi NNE 4.6 mph - N/A   Scattered Clouds
8:53 AM 34.0 °F 28.8 °F 16.0 °F 48% 29.82 in 10.0 mi NNE 5.8 mph - N/A   Mostly Cloudy
9:53 AM 37.0 °F 30.4 °F 19.0 °F 48% 29.80 in 10.0 mi NNE 9.2 mph - N/A   Mostly Cloudy
10:53 AM 39.9 °F 35.8 °F 16.0 °F 38% 29.78 in 10.0 mi NE 5.8 mph - N/A   Mostly Cloudy
11:53 AM 41.0 °F 39.0 °F 15.1 °F 35% 29.76 in 10.0 mi Variable 3.5 mph - N/A   Overcast
12:53 PM 41.0 °F 36.4 °F 19.9 °F 43% 29.75 in 10.0 mi South 6.9 mph - N/A   Overcast
1:53 PM 39.0 °F 36.8 °F 28.0 °F 65% 29.76 in 7.0 mi Variable 3.5 mph - 0.00 in Rain Light Rain Showers
2:53 PM 39.0 °F 35.7 °F 27.0 °F 62% 29.74 in 8.0 mi SE 4.6 mph - 0.00 in Rain Light Rain
3:53 PM 37.9 °F 33.5 °F 30.9 °F 76% 29.74 in 10.0 mi SE 5.8 mph - 0.00 in Rain Light Rain
4:53 PM 37.9 °F 35.5 °F 32.0 °F 79% 29.73 in 6.0 mi North 3.5 mph - 0.01 in Rain Light Rain
5:23 PM 37.4 °F 33.8 °F 32.0 °F 81% 29.69 in 5.0 mi NNE 4.6 mph - 0.00 in Rain Light Rain
5:53 PM 37.0 °F 34.5 °F 32.0 °F 82% 29.72 in 7.0 mi NE 3.5 mph - 0.00 in   Overcast
6:53 PM 37.9 °F 34.4 °F 32.0 °F 79% 29.71 in 10.0 mi North 4.6 mph - N/A   Overcast
7:53 PM 37.0 °F 33.3 °F 33.1 °F 86% 29.71 in 8.0 mi NNE 4.6 mph - 0.01 in Rain Light Rain
8:53 PM 37.0 °F 34.5 °F 33.1 °F 86% 29.70 in 10.0 mi NNE 3.5 mph - 0.00 in   Overcast
9:53 PM 37.0 °F 33.3 °F 32.0 °F 82% 29.70 in 10.0 mi NE 4.6 mph - N/A   Overcast
10:53 PM 36.0 °F 32.1 °F 32.0 °F 86% 29.70 in 10.0 mi NNE 4.6 mph - N/A   Overcast
11:25 PM 35.6 °F 31.7 °F 32.0 °F 87% 29.67 in 10.0 mi NNE 4.6 mph - N/A   Overcast
11:53 PM 35.1 °F 32.2 °F 32.0 °F 89% 29.70 in 10.0 mi NNE 3.5 mph - N/A   Overcast